DELTA 1 R/B, 3036

Orbit data source: Space-Track

DELTA 1 R/B, 3036 is space debris in SSO originally from a launch on Fri, 10 Nov 1967 UTC launched from the Air Force Western Test Range (AFWTR). Debris objects in space refer to the collection of defunct objects orbiting the Earth. Examples of debris include non-operational satellites, rocket bodies, and fragments generated from explosions, collisions, or faulty payload assembly.

Loading next visibility...
Identifier
3036, 1967-114B
Orbit
SSO
Country
Flag of USUS
Related business
Manufacturer
UTC
Mission
Spacecraft
Bus & Motor
FW4, Unknown motor
Mass
~40 kg wet, ~40 kg dry
Launch date (UTC)
1967-11-10 (58 years ago)
Launch vehicle
Unknown
Launch site
Air Force Western Test Range (AFWTR)
Object type
Payload
Rocket body
Debris
Shape & HBR
Cyl, 0.8 m
Radar Cross Section
0.687 m², Medium (>0.1 m² and < 1m²)

Expand to show TLE details & history
Last TLE update: 17 hours ago

TLE from 17 hours ago
0 DELTA 1 R/B
1 03036U 67114B   25261.19827392 -.00000051  00000-0 -27657-4 0  9997
2 03036 102.0142 353.8584 0047734 297.9646  90.8434 12.54133510648256
Epoch: 2025-09-18T04:45Z
TLE epoch observation values (Epoch: 2025-09-18T04:45:30.866Z)
Latitude
28.69573°
Longitude
-81.54019°
Altitude
1,451.233 km
Speed
7.139 km/s
True Right ascension
23h 08m 48s
True Declination
28° 33' 50"
Sunlit
Object was in full shadow at epoch
Visualization orbit readout
Latitude
Unknown
Longitude
Unknown
Altitude
Unknown
Speed
Unknown
Apparent Right ascension
Unknown
Apparent Declination
Unknown
Sunlit
N/A
Visualization observer readout
Local Sidereal Time
14:28:24
Azimuth
Unknown
Elevation
Unknown
Doppler factor
Unknown
Orbital elements
Apogee altitude
1,482.152 km
Perigee altitude
1,407.468 km
Semi-major axis
7,822.947 km
Eccentricity
0.00477
Inclination
102.0142°
RAAN
353.8584°
Arg. of periapsis
297.9646°
True anomaly
91.39028°
Mean anomaly
90.8434°
Eccentric anomaly
91.11684°
Mean motion
3.13681 °/min
Orbital period
114.77 mins
BSTAR
-0.000027657
Loading maneuver chart data...
Computing Atmospheric mass density...
Loading historical data...
Loading historical data...
Loading historical data...
Loading historical data...
Loading historical data...
Loading historical data...
Loading historical data...
Other satellites on launch #114 in the year 1967 (1967-11-10 UTC)

Documentation

Showing up to 5 results
|